Location: ??????
(30.5519°N, 47.7720°E)
Time: 17:33:28
(UTC+00:00)

Cosmos 44 Rocket - Pass Details

Date: 24 January 2021
Orbit: 637 x 753 km, 65.1° (Epoch: 02 March)

Event Time Altitude Azimuth Distance (km) Brightness Sun altitude
Rises 15:29:38 0° 178° (S) 2,982 6.7 -15.5°
Reaches altitude 10° 15:32:12 10° 166° (SSE) 2,092 5.8 -16.0°
Maximum altitude 15:36:10 27° 109° (ESE) 1,315 4.2 -16.9°
Enters shadow 15:36:26 27° 104° (ESE) 1,322 4.2 -16.9°
